Time,TemperatureF,DewpointF,PressureIn,WindDirection,WindDirectionDegrees,WindSpeedMPH,WindSpeedGustMPH,Humidity,HourlyPrecipIn,Conditions,Clouds,dailyrainin,SoftwareType,DateUTC
2013-03-28 00:01:00,24.1,18.2,30.34,WNW,296,0.0,0.0,78,0.00,,---,0.00,VWS V14.01,2013-03-28 04:01:00,
2013-03-28 00:31:00,23.3,18.6,30.34,WNW,296,0.0,0.0,82,0.00,,---,0.00,VWS V14.01,2013-03-28 04:31:00,
2013-03-28 01:01:00,22.4,18.3,30.34,WNW,296,0.0,0.0,84,0.00,,---,0.00,VWS V14.01,2013-03-28 05:01:00,
2013-03-28 01:16:00,23.5,19.1,30.34,WNW,296,0.0,0.0,83,0.00,,---,0.00,VWS V14.01,2013-03-28 05:16:00,
2013-03-28 01:46:00,23.6,18.9,30.34,WNW,296,0.0,0.0,82,0.00,,---,0.00,VWS V14.01,2013-03-28 05:46:00,
2013-03-28 02:01:00,23.3,18.9,30.34,WNW,296,0.0,0.0,83,0.00,,---,0.00,VWS V14.01,2013-03-28 06:01:00,
2013-03-28 03:16:00,25.1,20.4,30.34,WNW,296,0.0,3.0,82,0.00,,---,0.00,VWS V14.01,2013-03-28 07:16:00,
2013-03-28 04:01:00,25.3,19.7,30.34,WNW,296,0.0,0.0,79,0.00,,---,0.00,VWS V14.01,2013-03-28 08:01:00,
2013-03-28 05:31:00,21.9,18.4,30.34,WNW,296,0.0,0.0,86,0.00,,---,0.00,VWS V14.01,2013-03-28 09:31:00,
2013-03-28 07:16:00,20.8,18.1,30.35,WNW,296,0.0,0.0,89,0.00,,---,0.00,VWS V14.01,2013-03-28 11:16:00,
2013-03-28 08:16:00,21.7,19.7,30.36,WNW,296,0.0,0.0,92,0.00,,---,0.00,VWS V14.01,2013-03-28 12:16:00,
2013-03-28 09:01:00,28.5,25.4,30.37,WNW,287,0.0,2.0,88,0.00,,---,0.00,VWS V14.01,2013-03-28 13:01:00,
2013-03-28 09:16:00,31.1,27.1,30.37,WNW,287,3.0,4.0,85,0.00,,---,0.00,VWS V14.01,2013-03-28 13:16:00,
2013-03-28 09:46:00,35.2,30.3,30.37,West,279,4.0,7.0,82,0.00,,---,0.00,VWS V14.01,2013-03-28 13:46:00,
2013-03-28 11:16:00,40.0,28.0,30.37,NW,314,7.0,13.0,62,0.00,,---,0.00,VWS V14.01,2013-03-28 15:16:00,
2013-03-28 11:31:00,41.0,27.8,30.37,West,264,8.0,9.0,59,0.00,,---,0.00,VWS V14.01,2013-03-28 15:31:00,
2013-03-28 12:01:00,42.3,25.5,30.37,NW,305,7.0,10.0,51,0.00,,---,0.00,VWS V14.01,2013-03-28 16:01:00,
2013-03-28 12:31:00,43.0,24.7,30.37,NNW,331,3.0,15.0,48,0.00,,---,0.00,VWS V14.01,2013-03-28 16:31:00,
2013-03-28 12:46:00,43.2,23.8,30.37,WNW,294,8.0,10.0,46,0.00,,---,0.00,VWS V14.01,2013-03-28 16:46:00,
2013-03-28 13:01:00,42.7,23.4,30.37,NW,311,5.0,15.0,46,0.00,,---,0.00,VWS V14.01,2013-03-28 17:01:00,
2013-03-28 15:31:00,44.0,23.0,30.35,WNW,286,4.0,14.0,43,0.00,,---,0.00,VWS V14.01,2013-03-28 19:31:00,
2013-03-28 15:46:00,44.2,23.1,30.35,WNW,291,6.0,14.0,43,0.00,,---,0.00,VWS V14.01,2013-03-28 19:46:00,
2013-03-28 16:01:00,44.7,23.0,30.34,WNW,292,6.0,14.0,42,0.00,,---,0.00,VWS V14.01,2013-03-28 20:01:00,
2013-03-28 16:46:00,45.1,22.2,30.33,WNW,292,6.0,12.0,40,0.00,,---,0.00,VWS V14.01,2013-03-28 20:46:00,
2013-03-28 18:31:00,44.0,20.6,30.33,North,5,3.0,6.0,39,0.00,,---,0.00,VWS V14.01,2013-03-28 22:31:00,
2013-03-28 19:16:00,43.6,20.3,30.32,NNE,15,2.0,5.0,39,0.00,,---,0.00,VWS V14.01,2013-03-28 23:16:00,
2013-03-28 19:31:00,42.7,20.7,30.33,NNE,17,2.0,5.0,41,0.00,,---,0.00,VWS V14.01,2013-03-28 23:31:00,
2013-03-28 20:01:00,41.1,21.4,30.33,NNE,17,0.0,2.0,45,0.00,,---,0.00,VWS V14.01,2013-03-29 00:01:00,
2013-03-28 20:31:00,39.1,20.6,30.33,NNE,17,0.0,1.0,47,0.00,,---,0.00,VWS V14.01,2013-03-29 00:31:00,
2013-03-28 21:01:00,37.3,21.3,30.33,NNE,17,0.0,1.0,52,0.00,,---,0.00,VWS V14.01,2013-03-29 01:01:00,
2013-03-28 21:16:00,36.6,21.1,30.33,NNE,17,0.0,0.0,53,0.00,,---,0.00,VWS V14.01,2013-03-29 01:16:00,
2013-03-28 21:31:00,35.6,20.6,30.33,NNE,17,0.0,0.0,54,0.00,,---,0.00,VWS V14.01,2013-03-29 01:31:00,
2013-03-28 22:46:00,29.9,21.3,30.35,NNE,17,0.0,0.0,70,0.00,,---,0.00,VWS V14.01,2013-03-29 02:46:00,
2013-03-28 23:01:00,29.2,21.0,30.35,NNE,17,0.0,0.0,71,0.00,,---,0.00,VWS V14.01,2013-03-29 03:01:00,
2013-03-28 23:16:00,29.1,21.2,30.35,NNE,17,0.0,0.0,72,0.00,,---,0.00,VWS V14.01,2013-03-29 03:16:00,
2013-03-28 23:31:00,29.3,22.1,30.35,NNE,17,0.0,0.0,74,0.00,,---,0.00,VWS V14.01,2013-03-29 03:31:00,